User: anonymous
Location: Wayah Bald
(35.1806°N, 83.5603°W)
Time: 12:32:24
(UTC-04:00)
Language:

Meteor 1-27 Rocket - Orbit

View from above orbital plane
View from above orbital plane
View from above satellite
View from above satellite

Ground track
Ground track

The orbit data is extracted from the following two-line orbital elements,

1 09904U 77024B   14231.08180164 -.00000153  00000-0 -98368-4 0   373
2 09904 081.2610 048.0381 0053944 359.4241 140.0664 14.06737448917540
Epoch (UTC): 19 August 2014 01:57:47
Eccentricity: 0.0053944
inclination: 81.2610°
perigee height: 831 km
apogee height: 909 km
right ascension of ascending node: 48.0381°
argument of perigee: 359.4241°
revolutions per day: 14.06737448
mean anomaly at epoch: 140.0664°
orbit number at epoch: 91754

The dashed part of the orbit path shows where the satellite is in the earth's shadow,  

DLR